Time,TemperatureF,DewpointF,PressureIn,WindDirection,WindDirectionDegrees,WindSpeedMPH,WindSpeedGustMPH,Humidity,HourlyPrecipIn,Conditions,Clouds,dailyrainin,SoftwareType,DateUTC
2013-04-29 00:09:00,62.2,54.5,29.57,South,180,6.8,-999.0,76,-99.99,,,0.00,Acu-Link.com,2013-04-29 05:09:00,
2013-04-29 00:25:00,61.5,54.6,29.57,South,180,8.9,-999.0,78,-99.99,,,0.00,Acu-Link.com,2013-04-29 05:25:00,
2013-04-29 00:40:00,61.3,54.7,29.57,SSE,157,7.8,-999.0,79,-99.99,,,0.00,Acu-Link.com,2013-04-29 05:40:00,
2013-04-29 00:55:00,61.2,54.6,29.57,SSW,202,7.8,-999.0,79,-99.99,,,0.00,Acu-Link.com,2013-04-29 05:55:00,
2013-04-29 01:10:00,60.8,54.6,29.57,South,180,6.8,-999.0,80,-99.99,,,0.00,Acu-Link.com,2013-04-29 06:10:00,
2013-04-29 01:25:00,60.4,54.5,29.58,South,180,5.8,-999.0,81,-99.99,,,0.00,Acu-Link.com,2013-04-29 06:25:00,
2013-04-29 01:41:00,60.1,54.6,29.58,South,180,7.8,-999.0,82,-99.99,,,0.00,Acu-Link.com,2013-04-29 06:41:00,
2013-04-29 01:56:00,59.5,54.7,29.58,SSE,157,4.7,-999.0,84,-99.99,,,0.00,Acu-Link.com,2013-04-29 06:56:00,
2013-04-29 02:11:00,59.4,54.9,29.57,SSE,157,6.3,-999.0,85,-99.99,,,0.00,Acu-Link.com,2013-04-29 07:11:00,
2013-04-29 02:26:00,59.2,54.7,29.57,South,180,4.7,-999.0,85,-99.99,,,0.00,Acu-Link.com,2013-04-29 07:26:00,
2013-04-29 02:41:00,57.9,54.1,29.57,SSE,157,3.2,-999.0,87,-99.99,,,0.00,Acu-Link.com,2013-04-29 07:41:00,
2013-04-29 02:57:00,57.4,54.2,29.58,SSW,202,3.2,-999.0,89,-99.99,,,0.00,Acu-Link.com,2013-04-29 07:57:00,
2013-04-29 03:12:00,57.0,53.8,29.57,South,180,5.3,-999.0,89,-99.99,,,0.00,Acu-Link.com,2013-04-29 08:12:00,
2013-04-29 03:27:00,57.2,54.3,29.56,SSW,202,6.8,-999.0,90,-99.99,,,0.00,Acu-Link.com,2013-04-29 08:27:00,
2013-04-29 03:42:00,56.5,53.9,29.56,SSW,202,3.7,-999.0,91,-99.99,,,0.00,Acu-Link.com,2013-04-29 08:42:00,
2013-04-29 03:57:00,55.9,53.6,29.56,South,180,2.7,-999.0,92,-99.99,,,0.00,Acu-Link.com,2013-04-29 08:57:00,
2013-04-29 04:12:00,56.1,53.8,29.56,WNW,292,2.2,-999.0,92,-99.99,,,0.00,Acu-Link.com,2013-04-29 09:12:00,
2013-04-29 04:28:00,55.4,54.0,29.56,SSW,202,1.1,-999.0,95,-99.99,,,0.00,Acu-Link.com,2013-04-29 09:28:00,
2013-04-29 04:43:00,55.6,54.2,29.57,South,180,3.2,-999.0,95,-99.99,,,0.00,Acu-Link.com,2013-04-29 09:43:00,
2013-04-29 04:58:00,55.2,53.8,29.56,SSW,202,4.2,-999.0,95,-99.99,,,0.00,Acu-Link.com,2013-04-29 09:58:00,
2013-04-29 05:13:00,54.9,53.5,29.56,NNW,337,0.0,-999.0,95,-99.99,,,0.00,Acu-Link.com,2013-04-29 10:13:00,
2013-04-29 05:28:00,54.5,53.7,29.57,WNW,292,0.0,-999.0,97,-99.99,,,0.00,Acu-Link.com,2013-04-29 10:28:00,
2013-04-29 05:44:00,54.5,53.7,29.59,West,270,0.0,-999.0,97,-99.99,,,0.00,Acu-Link.com,2013-04-29 10:44:00,
2013-04-29 05:59:00,54.5,53.7,29.59,West,270,0.0,-999.0,97,-99.99,,,0.00,Acu-Link.com,2013-04-29 10:59:00,
2013-04-29 06:14:00,54.1,53.5,29.59,SSW,202,0.0,-999.0,98,-99.99,,,0.00,Acu-Link.com,2013-04-29 11:14:00,
2013-04-29 06:29:00,55.0,54.2,29.58,South,180,2.2,-999.0,97,-99.99,,,0.00,Acu-Link.com,2013-04-29 11:29:00,
2013-04-29 06:44:00,54.5,53.7,29.59,South,180,3.2,-999.0,97,-99.99,,,0.00,Acu-Link.com,2013-04-29 11:44:00,
2013-04-29 07:00:00,54.3,53.2,29.59,South,180,3.7,-999.0,96,-99.99,,,0.00,Acu-Link.com,2013-04-29 12:00:00,
2013-04-29 07:15:00,55.9,54.2,29.58,South,180,4.7,-999.0,94,-99.99,,,0.00,Acu-Link.com,2013-04-29 12:15:00,
2013-04-29 07:30:00,58.1,54.9,29.56,SSW,202,7.8,-999.0,89,-99.99,,,0.00,Acu-Link.com,2013-04-29 12:30:00,
2013-04-29 07:45:00,59.7,55.8,29.55,SSW,202,7.8,-999.0,87,-99.99,,,0.00,Acu-Link.com,2013-04-29 12:45:00,
2013-04-29 08:01:00,61.3,56.1,29.55,SSW,202,6.3,-999.0,83,-99.99,,,0.00,Acu-Link.com,2013-04-29 13:01:00,
2013-04-29 08:16:00,62.8,56.2,29.54,South,180,5.8,-999.0,79,-99.99,,,0.00,Acu-Link.com,2013-04-29 13:16:00,
2013-04-29 08:31:00,65.3,55.6,29.55,SSW,202,2.7,-999.0,71,-99.99,,,0.00,Acu-Link.com,2013-04-29 13:31:00,
2013-04-29 08:46:00,68.7,55.1,29.55,SW,225,4.7,-999.0,62,-99.99,,,0.00,Acu-Link.com,2013-04-29 13:46:00,
2013-04-29 09:02:00,65.5,55.8,29.54,SW,225,3.2,-999.0,71,-99.99,,,0.00,Acu-Link.com,2013-04-29 14:02:00,
2013-04-29 09:17:00,65.7,55.6,29.51,WNW,292,3.2,-999.0,70,-99.99,,,0.00,Acu-Link.com,2013-04-29 14:17:00,
2013-04-29 09:32:00,65.7,54.0,29.50,West,270,3.7,-999.0,66,-99.99,,,0.00,Acu-Link.com,2013-04-29 14:32:00,
2013-04-29 09:47:00,66.4,55.1,29.49,West,270,2.7,-999.0,67,-99.99,,,0.00,Acu-Link.com,2013-04-29 14:47:00,
2013-04-29 10:03:00,68.5,54.5,29.48,North,0,5.8,-999.0,61,-99.99,,,0.00,Acu-Link.com,2013-04-29 15:03:00,
2013-04-29 10:18:00,69.4,54.0,29.49,North,0,3.2,-999.0,58,-99.99,,,0.00,Acu-Link.com,2013-04-29 15:18:00,
2013-04-29 10:33:00,70.3,53.9,29.52,North,0,4.7,-999.0,56,-99.99,,,0.00,Acu-Link.com,2013-04-29 15:33:00,
2013-04-29 10:48:00,70.5,54.5,29.53,NNE,22,4.2,-999.0,57,-99.99,,,0.00,Acu-Link.com,2013-04-29 15:48:00,
2013-04-29 11:03:00,72.7,55.6,29.53,NNE,22,4.7,-999.0,55,-99.99,,,0.00,Acu-Link.com,2013-04-29 16:03:00,
2013-04-29 11:19:00,73.0,55.9,29.53,SSE,157,8.3,-999.0,55,-99.99,,,0.00,Acu-Link.com,2013-04-29 16:19:00,
2013-04-29 11:34:00,73.0,54.8,29.54,NE,45,3.2,-999.0,53,-99.99,,,0.00,Acu-Link.com,2013-04-29 16:34:00,
2013-04-29 11:49:00,74.8,57.5,29.54,NE,45,2.2,-999.0,55,-99.99,,,0.00,Acu-Link.com,2013-04-29 16:49:00,
2013-04-29 12:04:00,76.6,57.6,29.54,ESE,112,6.8,-999.0,52,-99.99,,,0.00,Acu-Link.com,2013-04-29 17:04:00,
2013-04-29 12:19:00,77.2,57.1,29.54,ESE,112,7.3,-999.0,50,-99.99,,,0.00,Acu-Link.com,2013-04-29 17:19:00,
2013-04-29 12:35:00,78.8,57.4,29.53,ESE,112,7.8,-999.0,48,-99.99,,,0.00,Acu-Link.com,2013-04-29 17:35:00,
2013-04-29 12:50:00,78.6,56.7,29.52,ESE,112,2.7,-999.0,47,-99.99,,,0.00,Acu-Link.com,2013-04-29 17:50:00,
2013-04-29 13:05:00,79.9,55.4,29.52,SW,225,3.2,-999.0,43,-99.99,,,0.00,Acu-Link.com,2013-04-29 18:05:00,
2013-04-29 13:20:00,80.4,55.8,29.51,SSE,157,7.8,-999.0,43,-99.99,,,0.00,Acu-Link.com,2013-04-29 18:20:00,
2013-04-29 13:36:00,79.7,56.5,29.48,SSE,157,9.4,-999.0,45,-99.99,,,0.00,Acu-Link.com,2013-04-29 18:36:00,
2013-04-29 13:51:00,81.1,56.5,29.50,South,180,8.9,-999.0,43,-99.99,,,0.00,Acu-Link.com,2013-04-29 18:51:00,
2013-04-29 14:06:00,81.7,55.7,29.48,SSE,157,6.8,-999.0,41,-99.99,,,0.00,Acu-Link.com,2013-04-29 19:06:00,
2013-04-29 14:21:00,83.3,57.1,29.49,SW,225,4.7,-999.0,41,-99.99,,,0.00,Acu-Link.com,2013-04-29 19:21:00,
2013-04-29 14:37:00,82.6,56.5,29.47,SE,135,8.3,-999.0,41,-99.99,,,0.00,Acu-Link.com,2013-04-29 19:37:00,
2013-04-29 14:52:00,84.7,56.3,29.47,SW,225,8.3,-999.0,38,-99.99,,,0.00,Acu-Link.com,2013-04-29 19:52:00,
2013-04-29 15:07:00,82.6,54.4,29.47,SW,225,5.8,-999.0,38,-99.99,,,0.00,Acu-Link.com,2013-04-29 20:07:00,
2013-04-29 15:22:00,81.9,55.2,29.44,South,180,8.3,-999.0,40,-99.99,,,0.00,Acu-Link.com,2013-04-29 20:22:00,
2013-04-29 15:37:00,84.2,55.8,29.44,SSE,157,6.3,-999.0,38,-99.99,,,0.00,Acu-Link.com,2013-04-29 20:37:00,
2013-04-29 15:53:00,82.6,54.4,29.44,South,180,7.8,-999.0,38,-99.99,,,0.00,Acu-Link.com,2013-04-29 20:53:00,
2013-04-29 16:08:00,84.9,55.7,29.42,South,180,8.9,-999.0,37,-99.99,,,0.00,Acu-Link.com,2013-04-29 21:08:00,
2013-04-29 16:23:00,84.7,54.8,29.41,SSW,202,10.9,-999.0,36,-99.99,,,0.00,Acu-Link.com,2013-04-29 21:23:00,
2013-04-29 16:38:00,85.3,56.8,29.43,SSW,202,7.3,-999.0,38,-99.99,,,0.00,Acu-Link.com,2013-04-29 21:38:00,
2013-04-29 16:54:00,85.5,56.2,29.42,SW,225,5.8,-999.0,37,-99.99,,,0.00,Acu-Link.com,2013-04-29 21:54:00,
2013-04-29 17:09:00,84.9,57.1,29.42,South,180,11.9,-999.0,39,-99.99,,,0.00,Acu-Link.com,2013-04-29 22:09:00,
2013-04-29 17:24:00,85.1,58.0,29.41,SW,225,6.8,-999.0,40,-99.99,,,0.00,Acu-Link.com,2013-04-29 22:24:00,
2013-04-29 17:39:00,84.7,58.4,29.41,SSE,157,5.8,-999.0,41,-99.99,,,0.00,Acu-Link.com,2013-04-29 22:39:00,
2013-04-29 17:55:00,84.4,58.1,29.41,South,180,5.8,-999.0,41,-99.99,,,0.00,Acu-Link.com,2013-04-29 22:55:00,
2013-04-29 18:10:00,84.6,57.6,29.40,SSW,202,8.3,-999.0,40,-99.99,,,0.00,Acu-Link.com,2013-04-29 23:10:00,
2013-04-29 18:25:00,84.7,55.5,29.39,South,180,12.5,-999.0,37,-99.99,,,0.00,Acu-Link.com,2013-04-29 23:25:00,
2013-04-29 18:40:00,85.5,55.5,29.39,South,180,10.4,-999.0,36,-99.99,,,0.00,Acu-Link.com,2013-04-29 23:40:00,
2013-04-29 18:56:00,84.9,53.4,29.38,SSW,202,13.5,-999.0,34,-99.99,,,0.00,Acu-Link.com,2013-04-29 23:56:00,
2013-04-29 19:11:00,84.4,53.7,29.38,South,180,5.8,-999.0,35,-99.99,,,0.00,Acu-Link.com,2013-04-30 00:11:00,
2013-04-29 19:26:00,82.8,53.8,29.38,SSW,202,4.2,-999.0,37,-99.99,,,0.00,Acu-Link.com,2013-04-30 00:26:00,
2013-04-29 19:41:00,81.0,55.1,29.38,SW,225,3.2,-999.0,41,-99.99,,,0.00,Acu-Link.com,2013-04-30 00:41:00,
2013-04-29 19:56:00,79.7,55.2,29.39,South,180,4.7,-999.0,43,-99.99,,,0.00,Acu-Link.com,2013-04-30 00:56:00,
2013-04-29 20:12:00,78.4,56.5,29.39,SSW,202,5.8,-999.0,47,-99.99,,,0.00,Acu-Link.com,2013-04-30 01:12:00,
2013-04-29 20:27:00,77.7,57.0,29.39,South,180,5.8,-999.0,49,-99.99,,,0.00,Acu-Link.com,2013-04-30 01:27:00,
2013-04-29 20:42:00,76.8,56.7,29.40,South,180,3.7,-999.0,50,-99.99,,,0.00,Acu-Link.com,2013-04-30 01:42:00,
2013-04-29 20:57:00,75.9,55.9,29.40,SSW,202,3.7,-999.0,50,-99.99,,,0.00,Acu-Link.com,2013-04-30 01:57:00,
2013-04-29 21:13:00,75.6,55.6,29.41,South,180,5.3,-999.0,50,-99.99,,,0.00,Acu-Link.com,2013-04-30 02:13:00,
2013-04-29 21:28:00,75.0,56.2,29.42,South,180,8.9,-999.0,52,-99.99,,,0.00,Acu-Link.com,2013-04-30 02:28:00,
2013-04-29 21:43:00,74.7,56.9,29.43,South,180,9.4,-999.0,54,-99.99,,,0.00,Acu-Link.com,2013-04-30 02:43:00,
2013-04-29 21:58:00,74.7,58.9,29.44,SSE,157,8.3,-999.0,58,-99.99,,,0.00,Acu-Link.com,2013-04-30 02:58:00,
2013-04-29 22:13:00,73.8,59.5,29.43,South,180,6.3,-999.0,61,-99.99,,,0.00,Acu-Link.com,2013-04-30 03:13:00,
2013-04-29 22:29:00,73.0,60.1,29.44,South,180,6.8,-999.0,64,-99.99,,,0.00,Acu-Link.com,2013-04-30 03:29:00,
2013-04-29 22:44:00,72.5,60.9,29.44,South,180,5.8,-999.0,67,-99.99,,,0.00,Acu-Link.com,2013-04-30 03:44:00,
2013-04-29 22:59:00,71.8,61.1,29.44,SSE,157,7.3,-999.0,69,-99.99,,,0.00,Acu-Link.com,2013-04-30 03:59:00,
2013-04-29 23:14:00,71.8,61.5,29.44,SSW,202,5.8,-999.0,70,-99.99,,,0.00,Acu-Link.com,2013-04-30 04:14:00,
2013-04-29 23:29:00,71.4,61.5,29.44,South,180,5.3,-999.0,71,-99.99,,,0.00,Acu-Link.com,2013-04-30 04:29:00,
2013-04-29 23:45:00,70.5,61.0,29.43,South,180,4.7,-999.0,72,-99.99,,,0.00,Acu-Link.com,2013-04-30 04:45:00,